Time,TemperatureF,DewpointF,PressureIn,WindDirection,WindDirectionDegrees,WindSpeedMPH,WindSpeedGustMPH,Humidity,HourlyPrecipIn,Conditions,Clouds,dailyrainin,SoftwareType,DateUTC
2015-06-03 00:01:00,66.4,52.0,29.85,SSE,164,0.0,-999.0,61,-99.99,,,0.00,weatherlink.com 1.10,2015-06-03 05:01:00,
2015-06-03 00:16:00,66.3,53.0,29.85,SE,146,0.0,-999.0,62,-99.99,,,0.00,weatherlink.com 1.10,2015-06-03 05:16:00,
2015-06-03 00:31:00,66.4,53.0,29.84,South,174,3.0,-999.0,62,-99.99,,,0.00,weatherlink.com 1.10,2015-06-03 05:31:00,
2015-06-03 00:46:00,66.8,53.0,29.84,South,172,6.0,-999.0,62,-99.99,,,0.00,weatherlink.com 1.10,2015-06-03 05:46:00,
2015-06-03 01:01:00,66.8,54.0,29.84,SSE,164,1.0,-999.0,63,-99.99,,,0.00,weatherlink.com 1.10,2015-06-03 06:01:00,
2015-06-03 01:16:00,66.6,53.0,29.83,SSE,159,0.0,-999.0,63,-99.99,,,0.00,weatherlink.com 1.10,2015-06-03 06:16:00,
2015-06-03 01:31:00,66.3,54.0,29.83,South,176,4.0,-999.0,64,-99.99,,,0.00,weatherlink.com 1.10,2015-06-03 06:31:00,
2015-06-03 01:46:00,66.0,54.0,29.82,SSW,192,6.0,-999.0,65,-99.99,,,0.00,weatherlink.com 1.10,2015-06-03 06:46:00,
2015-06-03 02:16:00,65.3,54.0,29.81,SE,146,0.0,-999.0,67,-99.99,,,0.00,weatherlink.com 1.10,2015-06-03 07:16:00,
2015-06-03 02:31:00,65.2,54.0,29.82,South,171,0.0,-999.0,68,-99.99,,,0.00,weatherlink.com 1.10,2015-06-03 07:31:00,
2015-06-03 02:46:00,65.2,54.0,29.81,SE,130,0.0,-999.0,68,-99.99,,,0.00,weatherlink.com 1.10,2015-06-03 07:46:00,
2015-06-03 03:01:00,65.2,55.0,29.82,SE,141,0.0,-999.0,69,-99.99,,,0.00,weatherlink.com 1.10,2015-06-03 08:01:00,
2015-06-03 03:16:00,65.0,55.0,29.82,SSE,159,0.0,-999.0,69,-99.99,,,0.00,weatherlink.com 1.10,2015-06-03 08:16:00,
2015-06-03 03:32:00,65.0,55.0,29.82,South,170,0.0,-999.0,69,-99.99,,,0.00,weatherlink.com 1.10,2015-06-03 08:32:00,
2015-06-03 03:47:00,64.8,55.0,29.81,SE,134,2.0,-999.0,70,-99.99,,,0.00,weatherlink.com 1.10,2015-06-03 08:47:00,
2015-06-03 04:02:00,64.7,55.0,29.81,SSE,155,0.0,-999.0,71,-99.99,,,0.00,weatherlink.com 1.10,2015-06-03 09:02:00,
2015-06-03 04:17:00,64.5,55.0,29.82,ESE,112,4.0,-999.0,71,-99.99,,,0.00,weatherlink.com 1.10,2015-06-03 09:17:00,
2015-06-03 04:32:00,64.3,55.0,29.82,SSE,165,0.0,-999.0,71,-99.99,,,0.00,weatherlink.com 1.10,2015-06-03 09:32:00,
2015-06-03 04:47:00,64.2,55.0,29.82,South,174,0.0,-999.0,72,-99.99,,,0.00,weatherlink.com 1.10,2015-06-03 09:47:00,
2015-06-03 05:02:00,64.2,55.0,29.82,SSE,152,0.0,-999.0,72,-99.99,,,0.00,weatherlink.com 1.10,2015-06-03 10:02:00,
2015-06-03 05:17:00,64.2,55.0,29.82,SE,146,0.0,-999.0,73,-99.99,,,0.00,weatherlink.com 1.10,2015-06-03 10:17:00,
2015-06-03 05:47:00,64.0,55.0,29.81,SSE,165,0.0,-999.0,73,-99.99,,,0.00,weatherlink.com 1.10,2015-06-03 10:47:00,
2015-06-03 06:02:00,63.9,55.0,29.81,SSE,152,3.0,-999.0,74,-99.99,,,0.00,weatherlink.com 1.10,2015-06-03 11:02:00,
2015-06-03 06:17:00,64.0,56.0,29.80,SSE,163,0.0,-999.0,74,-99.99,,,0.00,weatherlink.com 1.10,2015-06-03 11:17:00,
2015-06-03 06:32:00,63.5,56.0,29.80,SE,146,0.0,-999.0,77,-99.99,,,0.00,weatherlink.com 1.10,2015-06-03 11:32:00,
2015-06-03 06:47:00,63.1,56.0,29.81,SSE,167,0.0,-999.0,78,-99.99,,,0.00,weatherlink.com 1.10,2015-06-03 11:47:00,
2015-06-03 07:02:00,62.6,56.0,29.80,East,97,0.0,-999.0,80,-99.99,,,0.00,weatherlink.com 1.10,2015-06-03 12:02:00,
2015-06-03 07:17:00,62.3,56.0,29.79,South,186,0.0,-999.0,81,-99.99,,,0.01,weatherlink.com 1.10,2015-06-03 12:17:00,
2015-06-03 07:32:00,61.3,57.0,29.79,East,84,0.0,-999.0,85,-99.99,,,0.03,weatherlink.com 1.10,2015-06-03 12:32:00,
2015-06-03 07:47:00,60.5,57.0,29.80,SE,138,0.0,-999.0,88,-99.99,,,0.05,weatherlink.com 1.10,2015-06-03 12:47:00,
2015-06-03 08:02:00,60.4,58.0,29.79,SE,136,0.0,-999.0,90,-99.99,,,0.06,weatherlink.com 1.10,2015-06-03 13:02:00,